Location: Chabot Space and Science Center
(37.8191°N, 122.1819°W)
Time: 15:11:35
(UTC-08:00)

ISS - Pass Details

Date: 04 December 2021
Orbit: 413 x 422 km, 51.6° (Epoch: 20 January)

Event Time Altitude Azimuth Distance (km) Brightness Sun altitude
Rises 18:07:15 0° 317° (NW) 2,383 0.4 -15.0°
Reaches altitude 10° 18:09:35 10° 330° (NNW) 1,513 -0.8 -15.4°
Enters shadow 18:12:21 26° 25° (NNE) 867 -2.5 -16.0°
